sat.trackr.live / text

‹ back to catalog

STARLINK-34129

NORAD 64138 · 2025-111R

PAYLOAD ACTIVE UNKNOWN

§ Identity

Operator
Country
US
Launch date
2025-05-24
Launch site
AFETR
Launch vehicle
Mass (kg)
RCS (m²)

Purposes: comms

External: N2YO · Heavens-Above · Gunter

§ Orbital elements

Epoch: 2026-09-20T04:00:16.019712Z

Period
94.27 min
Inclination
43.0033°
Eccentricity
0.0001020
Mean motion
15.27568000 rev/d
Perigee alt
482.4 km
Apogee alt
483.8 km
Semi-major
6,861.2 km
B*
4.0995e-4
RAAN
59.7799°
Arg perigee
265.6308°
Mean anomaly
94.4427°
Rev number
7,525

§ Raw data

STARLINK-341291 64138U 25111R   26263.16685208  .00011032  00000+0  40995-3 0  99932 64138  43.0033  59.7799 0001020 265.6308  94.4427 15.27568000 75259

JSON: /api/v1/satellites/64138 · /tle

For live sub-satellite position, see the globe view (requires WebGL).

§ Visibility from observer

Set your observer location to see the next 7 days of passes ≥ 10°. The values pass through the URL so the page stays shareable.

No JS? Fill the form by hand. The geolocation button needs JavaScript.